date,time,SUV Intensity [MED/Hr],UV Index,Daily total [MED],Since Last [MED]
27/11/2022,00:03:08,0.000,0.0,0.0,0.0
27/11/2022,00:04:08,-0.001,0.0,0.0,0.0
27/11/2022,00:05:08,-0.001,0.0,0.0,0.0
27/11/2022,00:06:08,0.000,0.0,0.0,0.0
27/11/2022,00:07:08,0.000,0.0,0.0,0.0
27/11/2022,00:08:08,-0.001,0.0,0.0,0.0
27/11/2022,00:09:08,0.000,0.0,0.0,0.0
27/11/2022,00:10:08,0.000,0.0,0.0,0.0
27/11/2022,00:11:08,-0.001,0.0,0.0,0.0
27/11/2022,00:12:08,0.000,0.0,0.0,0.0
27/11/2022,00:13:08,0.001,0.0,0.0,0.0
27/11/2022,00:14:08,0.001,0.0,0.0,0.0
27/11/2022,00:15:08,0.000,0.0,0.0,0.0
27/11/2022,00:16:08,0.000,0.0,0.0,0.0
27/11/2022,00:17:08,0.000,0.0,0.0,0.0
27/11/2022,00:18:08,0.000,0.0,0.0,0.0
27/11/2022,00:19:07,-0.001,0.0,0.0,0.0
27/11/2022,00:20:08,0.000,0.0,0.0,0.0
27/11/2022,00:21:08,0.001,0.0,0.0,0.0
27/11/2022,00:22:08,-0.001,0.0,0.0,0.0
27/11/2022,00:23:08,0.000,0.0,0.0,0.0
27/11/2022,00:24:09,0.000,0.0,0.0,0.0
27/11/2022,00:25:08,0.000,0.0,0.0,0.0
27/11/2022,00:26:07,0.000,0.0,0.0,0.0
27/11/2022,00:27:08,-0.001,0.0,0.0,0.0
27/11/2022,00:28:07,0.001,0.0,0.0,0.0
27/11/2022,00:29:08,-0.001,0.0,0.0,0.0
27/11/2022,00:30:08,0.000,0.0,0.0,0.0
27/11/2022,00:31:08,-0.001,0.0,0.0,0.0
27/11/2022,00:32:08,0.000,0.0,0.0,0.0
27/11/2022,00:33:08,0.000,0.0,0.0,0.0
27/11/2022,00:34:08,-0.001,0.0,0.0,0.0
27/11/2022,00:35:07,-0.000,0.0,0.0,0.0
27/11/2022,00:36:08,0.001,0.0,0.0,0.0
27/11/2022,00:37:08,-0.000,0.0,0.0,0.0
27/11/2022,00:38:08,-0.001,0.0,0.0,0.0
27/11/2022,00:39:08,0.000,0.0,0.0,0.0
27/11/2022,00:40:08,0.000,0.0,0.0,0.0
27/11/2022,00:41:08,0.001,0.0,0.0,0.0
27/11/2022,00:42:08,0.000,0.0,0.0,0.0
27/11/2022,00:43:08,-0.000,0.0,0.0,0.0
27/11/2022,00:44:08,-0.001,0.0,0.0,0.0
27/11/2022,00:45:08,-0.000,0.0,0.0,0.0
27/11/2022,00:46:08,-0.000,0.0,0.0,0.0
27/11/2022,00:47:08,-0.001,0.0,0.0,0.0
27/11/2022,00:48:08,-0.000,0.0,0.0,0.0
27/11/2022,00:49:08,-0.001,0.0,0.0,0.0
27/11/2022,00:50:08,0.001,0.0,0.0,0.0
27/11/2022,00:51:08,-0.000,0.0,0.0,0.0
27/11/2022,00:52:08,0.001,0.0,0.0,0.0
27/11/2022,00:53:08,0.000,0.0,0.0,0.0
27/11/2022,00:54:08,-0.000,0.0,0.0,0.0
27/11/2022,00:55:08,0.001,0.0,0.0,0.0
27/11/2022,00:56:08,-0.000,0.0,0.0,0.0
27/11/2022,00:57:10,0.000,0.0,0.0,0.0
27/11/2022,00:58:09,-0.000,0.0,0.0,0.0
27/11/2022,00:59:08,0.000,0.0,0.0,0.0
27/11/2022,01:00:08,-0.000,0.0,0.0,0.0
27/11/2022,01:01:08,-0.001,0.0,0.0,0.0
27/11/2022,01:02:08,0.000,0.0,0.0,0.0
27/11/2022,01:03:08,0.000,0.0,0.0,0.0
27/11/2022,01:04:08,0.001,0.0,0.0,0.0
27/11/2022,01:05:08,-0.000,0.0,0.0,0.0
27/11/2022,01:06:08,-0.000,0.0,0.0,0.0
27/11/2022,01:07:08,0.001,0.0,0.0,0.0
27/11/2022,01:08:08,-0.000,0.0,0.0,0.0
27/11/2022,01:09:08,-0.001,0.0,0.0,0.0
27/11/2022,01:10:08,-0.000,0.0,0.0,0.0
27/11/2022,01:11:08,0.000,0.0,0.0,0.0
27/11/2022,01:12:08,-0.000,0.0,0.0,0.0
27/11/2022,01:13:08,-0.000,0.0,0.0,0.0
27/11/2022,01:14:08,0.000,0.0,0.0,0.0
27/11/2022,01:15:08,-0.001,0.0,0.0,0.0
27/11/2022,01:16:08,-0.000,0.0,0.0,0.0
27/11/2022,01:17:08,0.000,0.0,0.0,0.0
27/11/2022,01:18:08,-0.000,0.0,0.0,0.0
27/11/2022,01:19:08,-0.000,0.0,0.0,0.0
27/11/2022,01:20:08,-0.000,0.0,0.0,0.0
27/11/2022,01:21:08,0.000,0.0,0.0,0.0
27/11/2022,01:22:08,0.000,0.0,0.0,0.0
27/11/2022,01:23:08,-0.000,0.0,0.0,0.0
27/11/2022,01:24:08,-0.000,0.0,0.0,0.0
27/11/2022,01:25:09,0.000,0.0,0.0,0.0
27/11/2022,01:26:07,-0.000,0.0,0.0,0.0
27/11/2022,01:27:08,-0.000,0.0,0.0,0.0
27/11/2022,01:28:08,-0.000,0.0,0.0,0.0
27/11/2022,01:29:08,0.000,0.0,0.0,0.0
27/11/2022,01:30:08,-0.000,0.0,0.0,0.0
27/11/2022,01:31:08,0.000,0.0,0.0,0.0
27/11/2022,01:32:08,-0.001,0.0,0.0,0.0
27/11/2022,01:33:08,0.000,0.0,0.0,0.0
27/11/2022,01:34:08,-0.000,0.0,0.0,0.0
27/11/2022,01:35:08,-0.000,0.0,0.0,0.0
27/11/2022,01:36:08,-0.000,0.0,0.0,0.0
27/11/2022,01:37:08,0.000,0.0,0.0,0.0
27/11/2022,01:38:08,-0.000,0.0,0.0,0.0
27/11/2022,01:39:09,-0.000,0.0,0.0,0.0
27/11/2022,01:40:08,0.000,0.0,0.0,0.0
27/11/2022,01:41:09,-0.000,0.0,0.0,0.0
27/11/2022,01:42:08,-0.000,0.0,0.0,0.0
27/11/2022,01:43:08,-0.001,0.0,0.0,0.0
27/11/2022,01:44:08,-0.001,0.0,0.0,0.0
27/11/2022,01:45:08,-0.000,0.0,0.0,0.0
27/11/2022,01:46:08,-0.001,0.0,0.0,0.0
27/11/2022,01:47:08,-0.000,0.0,0.0,0.0
27/11/2022,01:48:08,-0.000,0.0,0.0,0.0
27/11/2022,01:49:08,-0.001,0.0,0.0,0.0
27/11/2022,01:50:08,-0.001,0.0,0.0,0.0
27/11/2022,01:51:08,-0.000,0.0,0.0,0.0
27/11/2022,01:52:08,-0.000,0.0,0.0,0.0
27/11/2022,01:53:08,-0.000,0.0,0.0,0.0
27/11/2022,01:54:08,-0.000,0.0,0.0,0.0
27/11/2022,01:55:08,0.001,0.0,0.0,0.0
27/11/2022,01:56:08,-0.000,0.0,0.0,0.0
27/11/2022,01:57:08,-0.001,0.0,0.0,0.0
27/11/2022,01:58:08,0.001,0.0,0.0,0.0
27/11/2022,01:59:08,-0.000,0.0,0.0,0.0
27/11/2022,02:00:08,0.000,0.0,0.0,0.0
27/11/2022,02:01:08,-0.000,0.0,0.0,0.0
27/11/2022,02:02:08,-0.001,0.0,0.0,0.0
27/11/2022,02:03:08,-0.001,0.0,0.0,0.0
27/11/2022,02:04:08,0.000,0.0,0.0,0.0
27/11/2022,02:05:08,-0.000,0.0,0.0,0.0
27/11/2022,02:06:08,-0.000,0.0,0.0,0.0
27/11/2022,02:07:08,-0.000,0.0,0.0,0.0
27/11/2022,02:08:08,0.000,0.0,0.0,0.0
27/11/2022,02:09:08,-0.000,0.0,0.0,0.0
27/11/2022,02:10:08,-0.001,0.0,0.0,0.0
27/11/2022,02:11:08,0.000,0.0,0.0,0.0
27/11/2022,02:12:08,-0.002,0.0,0.0,0.0
27/11/2022,02:13:08,-0.000,0.0,0.0,0.0
27/11/2022,02:14:08,-0.001,0.0,0.0,0.0
27/11/2022,02:15:08,-0.000,0.0,0.0,0.0
27/11/2022,02:16:08,0.000,0.0,0.0,0.0
27/11/2022,02:17:08,-0.001,0.0,0.0,0.0
27/11/2022,02:18:07,-0.000,0.0,0.0,0.0
27/11/2022,02:19:30,0.001,0.0,0.0,0.0
27/11/2022,02:20:07,-0.000,0.0,0.0,0.0
27/11/2022,02:21:08,-0.000,0.0,0.0,0.0
27/11/2022,02:22:08,-0.000,0.0,0.0,0.0
27/11/2022,02:23:08,-0.001,0.0,0.0,0.0
27/11/2022,02:24:09,-0.000,0.0,0.0,0.0
27/11/2022,02:25:08,0.000,0.0,0.0,0.0
27/11/2022,02:26:08,0.000,0.0,0.0,0.0
27/11/2022,02:27:08,0.000,0.0,0.0,0.0
27/11/2022,02:28:08,0.000,0.0,0.0,0.0
27/11/2022,02:29:08,-0.001,0.0,0.0,0.0
27/11/2022,02:30:08,0.001,0.0,0.0,0.0
27/11/2022,02:31:08,0.000,0.0,0.0,0.0
27/11/2022,02:32:08,0.000,0.0,0.0,0.0
27/11/2022,02:33:08,-0.001,0.0,0.0,0.0
27/11/2022,02:34:09,-0.001,0.0,0.0,0.0
27/11/2022,02:35:08,-0.002,0.0,0.0,0.0
27/11/2022,02:36:09,-0.002,0.0,0.0,0.0
27/11/2022,02:37:08,-0.002,0.0,0.0,0.0
27/11/2022,02:38:09,0.001,0.0,0.0,0.0
27/11/2022,02:39:08,-0.001,0.0,0.0,0.0
27/11/2022,02:40:09,-0.001,0.0,0.0,0.0
27/11/2022,02:41:08,-0.001,0.0,0.0,0.0
27/11/2022,02:42:08,-0.000,0.0,0.0,0.0
27/11/2022,02:43:08,-0.000,0.0,0.0,0.0
27/11/2022,02:44:08,-0.000,0.0,0.0,0.0
27/11/2022,02:45:08,-0.000,0.0,0.0,0.0
27/11/2022,02:46:08,-0.000,0.0,0.0,0.0
27/11/2022,02:47:08,-0.001,0.0,0.0,0.0
27/11/2022,02:48:08,-0.000,0.0,0.0,0.0
27/11/2022,02:49:08,-0.001,0.0,0.0,0.0
27/11/2022,02:50:10,-0.001,0.0,0.0,0.0
27/11/2022,02:51:08,-0.000,0.0,0.0,0.0
27/11/2022,02:52:08,0.000,0.0,0.0,0.0
27/11/2022,02:53:08,0.001,0.0,0.0,0.0
27/11/2022,02:54:08,-0.000,0.0,0.0,0.0
27/11/2022,02:55:08,-0.001,0.0,0.0,0.0
27/11/2022,02:56:08,-0.000,0.0,0.0,0.0
27/11/2022,02:57:08,-0.002,0.0,0.0,0.0
27/11/2022,02:58:08,-0.002,0.0,0.0,0.0
27/11/2022,02:59:08,-0.001,0.0,0.0,0.0
27/11/2022,03:00:08,0.000,0.0,0.0,0.0
27/11/2022,03:01:08,-0.000,0.0,0.0,0.0
27/11/2022,03:02:08,-0.001,0.0,0.0,0.0
27/11/2022,03:03:08,-0.001,0.0,0.0,0.0
27/11/2022,03:04:08,0.000,0.0,0.0,0.0
27/11/2022,03:05:08,-0.000,0.0,0.0,0.0
27/11/2022,03:06:08,-0.001,0.0,0.0,0.0
27/11/2022,03:07:08,-0.001,0.0,0.0,0.0
27/11/2022,03:08:08,-0.000,0.0,0.0,0.0
27/11/2022,03:09:08,-0.001,0.0,0.0,0.0
27/11/2022,03:10:08,-0.001,0.0,0.0,0.0
27/11/2022,03:11:09,-0.000,0.0,0.0,0.0
27/11/2022,03:12:08,-0.001,0.0,0.0,0.0
27/11/2022,03:13:08,-0.000,0.0,0.0,0.0
27/11/2022,03:14:09,-0.001,0.0,0.0,0.0
27/11/2022,03:15:09,-0.001,0.0,0.0,0.0
27/11/2022,03:16:08,-0.001,0.0,0.0,0.0
27/11/2022,03:17:09,-0.002,0.0,0.0,0.0
27/11/2022,03:18:08,-0.000,0.0,0.0,0.0
27/11/2022,03:19:08,-0.000,0.0,0.0,0.0
27/11/2022,03:20:08,-0.001,0.0,0.0,0.0
27/11/2022,03:21:08,-0.000,0.0,0.0,0.0
27/11/2022,03:22:09,-0.001,0.0,0.0,0.0
27/11/2022,03:23:08,-0.000,0.0,0.0,0.0
27/11/2022,03:24:08,-0.001,0.0,0.0,0.0
27/11/2022,03:25:08,-0.001,0.0,0.0,0.0
27/11/2022,03:26:08,-0.001,0.0,0.0,0.0
27/11/2022,03:27:09,-0.001,0.0,0.0,0.0
27/11/2022,03:28:08,-0.001,0.0,0.0,0.0
27/11/2022,03:29:08,0.000,0.0,0.0,0.0
27/11/2022,03:30:08,-0.001,0.0,0.0,0.0
27/11/2022,03:31:09,-0.001,0.0,0.0,0.0
27/11/2022,03:32:09,-0.001,0.0,0.0,0.0
27/11/2022,03:33:08,-0.001,0.0,0.0,0.0
27/11/2022,03:34:09,-0.001,0.0,0.0,0.0
27/11/2022,03:35:08,-0.001,0.0,0.0,0.0
27/11/2022,03:36:10,-0.001,0.0,0.0,0.0
27/11/2022,03:37:09,-0.001,0.0,0.0,0.0
27/11/2022,03:38:08,0.000,0.0,0.0,0.0
27/11/2022,03:39:08,-0.001,0.0,0.0,0.0
27/11/2022,03:40:08,-0.000,0.0,0.0,0.0
27/11/2022,03:41:08,-0.001,0.0,0.0,0.0
27/11/2022,03:42:08,-0.001,0.0,0.0,0.0
27/11/2022,03:43:09,-0.001,0.0,0.0,0.0
27/11/2022,03:44:08,-0.001,0.0,0.0,0.0
27/11/2022,03:45:09,-0.000,0.0,0.0,0.0
27/11/2022,03:46:09,-0.000,0.0,0.0,0.0
27/11/2022,03:47:09,-0.001,0.0,0.0,0.0
27/11/2022,03:48:08,0.000,0.0,0.0,0.0
27/11/2022,03:49:08,-0.000,0.0,0.0,0.0
27/11/2022,03:50:08,-0.000,0.0,0.0,0.0
27/11/2022,03:51:08,-0.001,0.0,0.0,0.0
27/11/2022,03:52:08,-0.001,0.0,0.0,0.0
27/11/2022,03:53:08,0.000,0.0,0.0,0.0
27/11/2022,03:54:08,-0.001,0.0,0.0,0.0
27/11/2022,03:55:08,-0.001,0.0,0.0,0.0
27/11/2022,03:56:09,-0.001,0.0,0.0,0.0
27/11/2022,03:57:08,-0.001,0.0,0.0,0.0
27/11/2022,03:58:09,-0.001,0.0,0.0,0.0
27/11/2022,03:59:08,-0.000,0.0,0.0,0.0
27/11/2022,04:00:08,0.000,0.0,0.0,0.0
27/11/2022,04:01:08,-0.001,0.0,0.0,0.0
27/11/2022,04:02:08,0.000,0.0,0.0,0.0
27/11/2022,04:03:08,-0.001,0.0,0.0,0.0
27/11/2022,04:04:10,-0.001,0.0,0.0,0.0
27/11/2022,04:05:08,-0.001,0.0,0.0,0.0
27/11/2022,04:06:09,-0.000,0.0,0.0,0.0
27/11/2022,04:07:08,-0.002,0.0,0.0,0.0
27/11/2022,04:08:09,-0.000,0.0,0.0,0.0
27/11/2022,04:09:08,-0.001,0.0,0.0,0.0
27/11/2022,04:10:09,-0.001,0.0,0.0,0.0
27/11/2022,04:11:08,-0.000,0.0,0.0,0.0
27/11/2022,04:12:08,-0.001,0.0,0.0,0.0
27/11/2022,04:13:08,-0.001,0.0,0.0,0.0
27/11/2022,04:14:08,-0.001,0.0,0.0,0.0
27/11/2022,04:15:08,-0.001,0.0,0.0,0.0
27/11/2022,04:16:08,-0.001,0.0,0.0,0.0
27/11/2022,04:17:08,-0.001,0.0,0.0,0.0
27/11/2022,04:18:08,-0.001,0.0,0.0,0.0
27/11/2022,04:19:08,-0.001,0.0,0.0,0.0
27/11/2022,04:20:09,-0.001,0.0,0.0,0.0
27/11/2022,04:21:09,-0.001,0.0,0.0,0.0
27/11/2022,04:22:08,-0.001,0.0,0.0,0.0
27/11/2022,04:23:09,-0.001,0.0,0.0,0.0
27/11/2022,04:24:08,-0.001,0.0,0.0,0.0
27/11/2022,04:25:08,-0.001,0.0,0.0,0.0
27/11/2022,04:26:08,-0.001,0.0,0.0,0.0
27/11/2022,04:27:08,-0.001,0.0,0.0,0.0
27/11/2022,04:28:08,-0.001,0.0,0.0,0.0
27/11/2022,04:29:09,-0.001,0.0,0.0,0.0
27/11/2022,04:30:08,-0.001,0.0,0.0,0.0
27/11/2022,04:31:08,-0.000,0.0,0.0,0.0
27/11/2022,04:32:08,-0.000,0.0,0.0,0.0
27/11/2022,04:33:08,-0.001,0.0,0.0,0.0
27/11/2022,04:34:08,-0.002,0.0,0.0,0.0
27/11/2022,04:35:09,-0.002,0.0,0.0,0.0
27/11/2022,04:36:09,-0.001,0.0,0.0,0.0
27/11/2022,04:37:08,-0.001,0.0,0.0,0.0
27/11/2022,04:38:09,0.000,0.0,0.0,0.0
27/11/2022,04:39:08,-0.001,0.0,0.0,0.0
27/11/2022,04:40:09,-0.001,0.0,0.0,0.0
27/11/2022,04:41:08,-0.001,0.0,0.0,0.0
27/11/2022,04:42:09,-0.001,0.0,0.0,0.0
27/11/2022,04:43:08,-0.001,0.0,0.0,0.0
27/11/2022,04:44:08,-0.002,0.0,0.0,0.0
27/11/2022,04:45:08,-0.001,0.0,0.0,0.0
27/11/2022,04:46:08,-0.002,0.0,0.0,0.0
27/11/2022,04:47:09,-0.001,0.0,0.0,0.0
27/11/2022,04:48:08,-0.001,0.0,0.0,0.0
27/11/2022,04:49:08,-0.001,0.0,0.0,0.0
27/11/2022,04:50:08,-0.001,0.0,0.0,0.0
27/11/2022,04:51:08,-0.001,0.0,0.0,0.0
27/11/2022,04:52:08,-0.001,0.0,0.0,0.0
27/11/2022,04:53:08,-0.001,0.0,0.0,0.0
27/11/2022,04:54:08,-0.002,0.0,0.0,0.0
27/11/2022,04:55:08,0.000,0.0,0.0,0.0
27/11/2022,04:56:08,-0.001,0.0,0.0,0.0
27/11/2022,04:57:08,-0.001,0.0,0.0,0.0
27/11/2022,04:58:09,-0.001,0.0,0.0,0.0
27/11/2022,04:59:09,-0.001,0.0,0.0,0.0
27/11/2022,05:00:08,-0.001,0.0,0.0,0.0
27/11/2022,05:01:08,-0.000,0.0,0.0,0.0
27/11/2022,05:02:08,-0.001,0.0,0.0,0.0
27/11/2022,05:03:08,-0.001,0.0,0.0,0.0
27/11/2022,05:04:09,-0.001,0.0,0.0,0.0
27/11/2022,05:05:09,-0.001,0.0,0.0,0.0
27/11/2022,05:06:08,-0.001,0.0,0.0,0.0
27/11/2022,05:07:09,-0.001,0.0,0.0,0.0
27/11/2022,05:08:10,-0.001,0.0,0.0,0.0
27/11/2022,05:09:08,-0.001,0.0,0.0,0.0
27/11/2022,05:10:08,-0.001,0.0,0.0,0.0
27/11/2022,05:11:08,0.000,0.0,0.0,0.0
27/11/2022,05:12:08,-0.001,0.0,0.0,0.0
27/11/2022,05:13:08,-0.002,0.0,0.0,0.0
27/11/2022,05:14:09,-0.001,0.0,0.0,0.0
27/11/2022,05:15:09,-0.001,0.0,0.0,0.0
27/11/2022,05:16:06,-0.001,0.0,0.0,0.0
27/11/2022,05:17:08,-0.001,0.0,0.0,0.0
27/11/2022,05:18:09,-0.001,0.0,0.0,0.0
27/11/2022,05:19:09,-0.000,0.0,0.0,0.0
27/11/2022,05:20:09,-0.001,0.0,0.0,0.0
27/11/2022,05:21:08,-0.001,0.0,0.0,0.0
27/11/2022,05:22:09,-0.001,0.0,0.0,0.0
27/11/2022,05:23:08,-0.001,0.0,0.0,0.0
27/11/2022,05:24:08,-0.001,0.0,0.0,0.0
27/11/2022,05:25:09,-0.000,0.0,0.0,0.0
27/11/2022,05:26:09,-0.000,0.0,0.0,0.0
27/11/2022,05:27:09,0.000,0.0,0.0,0.0
27/11/2022,05:28:08,0.000,0.0,0.0,0.0
27/11/2022,05:29:09,-0.001,0.0,0.0,0.0
27/11/2022,05:30:08,-0.001,0.0,0.0,0.0
27/11/2022,05:31:08,-0.001,0.0,0.0,0.0
27/11/2022,05:32:09,0.000,0.0,0.0,0.0
27/11/2022,05:33:09,-0.001,0.0,0.0,0.0
27/11/2022,05:34:09,-0.001,0.0,0.0,0.0
27/11/2022,05:35:09,-0.000,0.0,0.0,0.0
27/11/2022,05:36:09,-0.001,0.0,0.0,0.0
27/11/2022,05:37:09,-0.001,0.0,0.0,0.0
27/11/2022,05:38:09,-0.001,0.0,0.0,0.0
27/11/2022,05:39:08,-0.001,0.0,0.0,0.0
27/11/2022,05:40:08,-0.001,0.0,0.0,0.0
27/11/2022,05:41:08,-0.001,0.0,0.0,0.0
27/11/2022,05:42:08,-0.001,0.0,0.0,0.0
27/11/2022,05:43:08,0.000,0.0,0.0,0.0
27/11/2022,05:44:08,-0.001,0.0,0.0,0.0
27/11/2022,05:45:08,-0.001,0.0,0.0,0.0
27/11/2022,05:46:09,-0.000,0.0,0.0,0.0
27/11/2022,05:47:08,-0.001,0.0,0.0,0.0
27/11/2022,05:48:09,-0.001,0.0,0.0,0.0
27/11/2022,05:49:08,-0.001,0.0,0.0,0.0
27/11/2022,05:50:08,-0.001,0.0,0.0,0.0
27/11/2022,05:51:07,0.000,0.0,0.0,0.0
27/11/2022,05:52:31,-0.001,0.0,0.0,0.0
27/11/2022,05:53:08,-0.001,0.0,0.0,0.0
27/11/2022,05:54:09,-0.001,0.0,0.0,0.0
27/11/2022,05:55:08,-0.001,0.0,0.0,0.0
27/11/2022,05:56:09,-0.001,0.0,0.0,0.0
27/11/2022,05:57:08,-0.001,0.0,0.0,0.0
27/11/2022,05:58:09,-0.001,0.0,0.0,0.0
27/11/2022,05:59:08,-0.001,0.0,0.0,0.0
27/11/2022,06:00:08,-0.001,0.0,0.0,0.0
27/11/2022,06:01:08,-0.002,0.0,0.0,0.0
27/11/2022,06:02:08,-0.001,0.0,0.0,0.0
27/11/2022,06:03:09,-0.001,0.0,0.0,0.0
27/11/2022,06:04:08,-0.001,0.0,0.0,0.0
27/11/2022,06:05:09,-0.001,0.0,0.0,0.0
27/11/2022,06:06:09,-0.001,0.0,0.0,0.0
27/11/2022,06:07:08,-0.001,0.0,0.0,0.0
27/11/2022,06:08:09,-0.001,0.0,0.0,0.0
27/11/2022,06:09:09,-0.001,0.0,0.0,0.0
27/11/2022,06:10:08,-0.002,0.0,0.0,0.0
27/11/2022,06:11:08,-0.001,0.0,0.0,0.0
27/11/2022,06:12:08,-0.001,0.0,0.0,0.0
27/11/2022,06:13:09,-0.001,0.0,0.0,0.0
27/11/2022,06:14:08,-0.002,0.0,0.0,0.0
27/11/2022,06:15:09,-0.001,0.0,0.0,0.0
27/11/2022,06:16:09,-0.001,0.0,0.0,0.0
27/11/2022,06:17:08,-0.001,0.0,0.0,0.0
27/11/2022,06:18:08,-0.001,0.0,0.0,0.0
27/11/2022,06:19:08,0.000,0.0,0.0,0.0
27/11/2022,06:20:08,-0.001,0.0,0.0,0.0
27/11/2022,06:21:09,-0.001,0.0,0.0,0.0
27/11/2022,06:22:09,-0.001,0.0,0.0,0.0
27/11/2022,06:23:08,-0.001,0.0,0.0,0.0
27/11/2022,06:24:08,-0.001,0.0,0.0,0.0
27/11/2022,06:25:08,0.000,0.0,0.0,0.0
27/11/2022,06:26:08,0.000,0.0,0.0,0.0
27/11/2022,06:27:08,-0.001,0.0,0.0,0.0
27/11/2022,06:28:08,-0.001,0.0,0.0,0.0
27/11/2022,06:29:08,-0.001,0.0,0.0,0.0
27/11/2022,06:30:08,-0.001,0.0,0.0,0.0
27/11/2022,06:31:08,-0.001,0.0,0.0,0.0
27/11/2022,06:32:09,-0.001,0.0,0.0,0.0
27/11/2022,06:33:09,-0.001,0.0,0.0,0.0
27/11/2022,06:34:09,-0.001,0.0,0.0,0.0
27/11/2022,06:35:09,-0.001,0.0,0.0,0.0
27/11/2022,06:36:09,-0.001,0.0,0.0,0.0
27/11/2022,06:37:09,-0.001,0.0,0.0,0.0
27/11/2022,06:38:09,-0.001,0.0,0.0,0.0
27/11/2022,06:39:08,-0.001,0.0,0.0,0.0
27/11/2022,06:40:08,-0.001,0.0,0.0,0.0
27/11/2022,06:41:08,-0.001,0.0,0.0,0.0
27/11/2022,06:42:08,-0.001,0.0,0.0,0.0
27/11/2022,06:43:08,-0.001,0.0,0.0,0.0
27/11/2022,06:44:08,-0.001,0.0,0.0,0.0
27/11/2022,06:45:08,0.000,0.0,0.0,0.0
27/11/2022,06:46:08,-0.002,0.0,0.0,0.0
27/11/2022,06:47:09,0.000,0.0,0.0,0.0
27/11/2022,06:48:09,-0.001,0.0,0.0,0.0
27/11/2022,06:49:08,-0.001,0.0,0.0,0.0
27/11/2022,06:50:09,-0.001,0.0,0.0,0.0
27/11/2022,06:51:09,-0.001,0.0,0.0,0.0
27/11/2022,06:52:08,0.000,0.0,0.0,0.0
27/11/2022,06:53:09,-0.001,0.0,0.0,0.0
27/11/2022,06:54:12,0.000,0.0,0.0,0.0
27/11/2022,06:55:10,-0.001,0.0,0.0,0.0
27/11/2022,06:56:09,-0.001,0.0,0.0,0.0
27/11/2022,06:57:09,0.000,0.0,0.0,0.0
27/11/2022,06:58:09,-0.001,0.0,0.0,0.0
27/11/2022,06:59:08,-0.001,0.0,0.0,0.0
27/11/2022,07:00:09,-0.001,0.0,0.0,0.0
27/11/2022,07:01:08,-0.001,0.0,0.0,0.0
27/11/2022,07:02:08,-0.001,0.0,0.0,0.0
27/11/2022,07:03:09,0.000,0.0,0.0,0.0
27/11/2022,07:04:08,-0.001,0.0,0.0,0.0
27/11/2022,07:05:09,0.000,0.0,0.0,0.0
27/11/2022,07:06:08,-0.001,0.0,0.0,0.0
27/11/2022,07:07:09,-0.000,0.0,0.0,0.0
27/11/2022,07:08:08,-0.001,0.0,0.0,0.0
27/11/2022,07:09:08,-0.001,0.0,0.0,0.0
27/11/2022,07:10:08,-0.001,0.0,0.0,0.0
27/11/2022,07:11:08,-0.000,0.0,0.0,0.0
27/11/2022,07:12:08,-0.002,0.0,0.0,0.0
27/11/2022,07:13:08,-0.001,0.0,0.0,0.0
27/11/2022,07:14:08,-0.002,0.0,0.0,0.0
27/11/2022,07:15:09,-0.001,0.0,0.0,0.0
27/11/2022,07:16:08,-0.001,0.0,0.0,0.0
27/11/2022,07:17:08,0.000,0.0,0.0,0.0
27/11/2022,07:18:08,-0.001,0.0,0.0,0.0
27/11/2022,07:19:08,-0.001,0.0,0.0,0.0
27/11/2022,07:20:08,0.000,0.0,0.0,0.0
27/11/2022,07:21:08,-0.000,0.0,0.0,0.0
27/11/2022,07:22:08,-0.001,0.0,0.0,0.0
27/11/2022,07:23:09,-0.001,0.0,0.0,0.0
27/11/2022,07:24:09,-0.001,0.0,0.0,0.0
27/11/2022,07:25:09,0.000,0.0,0.0,0.0
27/11/2022,07:26:09,-0.001,0.0,0.0,0.0
27/11/2022,07:27:09,-0.001,0.0,0.0,0.0
27/11/2022,07:28:08,-0.001,0.0,0.0,0.0
27/11/2022,07:29:09,0.001,0.0,0.0,0.0
27/11/2022,07:30:08,-0.001,0.0,0.0,0.0
27/11/2022,07:31:08,-0.001,0.0,0.0,0.0
27/11/2022,07:32:09,-0.000,0.0,0.0,0.0
27/11/2022,07:33:09,0.000,0.0,0.0,0.0
27/11/2022,07:34:08,-0.000,0.0,0.0,0.0
27/11/2022,07:35:09,-0.001,0.0,0.0,0.0
27/11/2022,07:36:10,-0.000,0.0,0.0,0.0
27/11/2022,07:37:09,-0.000,0.0,0.0,0.0
27/11/2022,07:38:08,-0.000,0.0,0.0,0.0
27/11/2022,07:39:08,-0.001,0.0,0.0,0.0
27/11/2022,07:40:09,-0.001,0.0,0.0,0.0
27/11/2022,07:41:09,-0.000,0.0,0.0,0.0
27/11/2022,07:42:09,-0.000,0.0,0.0,0.0
27/11/2022,07:43:08,-0.001,0.0,0.0,0.0
27/11/2022,07:44:08,-0.000,0.0,0.0,0.0
27/11/2022,07:45:08,0.000,0.0,0.0,0.0
27/11/2022,07:46:08,0.001,0.0,0.0,0.0
27/11/2022,07:47:09,-0.001,0.0,0.0,0.0
27/11/2022,07:48:09,-0.000,0.0,0.0,0.0
27/11/2022,07:49:09,0.001,0.0,0.0,0.0
27/11/2022,07:50:09,0.001,0.0,0.0,0.0
27/11/2022,07:51:08,0.001,0.0,0.0,0.0
27/11/2022,07:52:09,0.000,0.0,0.0,0.0
27/11/2022,07:53:08,0.001,0.0,0.0,0.0
27/11/2022,07:54:09,0.002,0.0,0.0,0.0
27/11/2022,07:55:08,0.001,0.0,0.0,0.0
27/11/2022,07:56:09,0.002,0.0,0.0,0.0
27/11/2022,07:57:09,0.002,0.0,0.0,0.0
27/11/2022,07:58:09,0.002,0.0,0.0,0.0
27/11/2022,07:59:08,0.002,0.0,0.0,0.0
27/11/2022,08:00:09,0.003,0.0,0.0,0.0
27/11/2022,08:01:09,0.003,0.0,0.0,0.0
27/11/2022,08:02:09,0.003,0.0,0.0,0.0
27/11/2022,08:03:08,0.003,0.0,0.0,0.0
27/11/2022,08:04:08,0.004,0.0,0.0,0.0
27/11/2022,08:05:09,0.003,0.0,0.0,0.0
27/11/2022,08:06:09,0.003,0.0,0.0,0.0
27/11/2022,08:07:11,0.003,0.0,0.0,0.0
27/11/2022,08:08:09,0.004,0.0,0.0,0.0
27/11/2022,08:09:09,0.005,0.0,0.0,0.0
27/11/2022,08:10:09,0.004,0.0,0.0,0.0
27/11/2022,08:11:09,0.003,0.0,0.0,0.0
27/11/2022,08:12:09,0.004,0.0,0.0,0.0
27/11/2022,08:13:09,0.004,0.0,0.0,0.0
27/11/2022,08:14:09,0.004,0.0,0.0,0.0
27/11/2022,08:15:09,0.004,0.0,0.0,0.0
27/11/2022,08:16:09,0.004,0.0,0.0,0.0
27/11/2022,08:17:08,0.003,0.0,0.0,0.0
27/11/2022,08:18:08,0.003,0.0,0.0,0.0
27/11/2022,08:19:09,0.004,0.0,0.0,0.0
27/11/2022,08:20:09,0.004,0.0,0.0,0.0
27/11/2022,08:21:09,0.004,0.0,0.0,0.0
27/11/2022,08:22:09,0.004,0.0,0.0,0.0
27/11/2022,08:23:09,0.003,0.0,0.0,0.0
27/11/2022,08:24:09,0.005,0.0,0.0,0.0
27/11/2022,08:25:09,0.005,0.0,0.0,0.0
27/11/2022,08:26:09,0.004,0.0,0.0,0.0
27/11/2022,08:27:09,0.005,0.0,0.0,0.0
27/11/2022,08:28:09,0.006,0.0,0.0,0.0
27/11/2022,08:29:09,0.006,0.0,0.0,0.0
27/11/2022,08:30:09,0.006,0.0,0.0,0.0
27/11/2022,08:31:08,0.006,0.0,0.0,0.0
27/11/2022,08:32:08,0.006,0.0,0.0,0.0
27/11/2022,08:33:09,0.006,0.0,0.0,0.0
27/11/2022,08:34:09,0.007,0.0,0.0,0.0
27/11/2022,08:35:09,0.008,0.0,0.001,0.001
27/11/2022,08:36:09,0.007,0.0,0.001,0.0
27/11/2022,08:37:08,0.007,0.0,0.001,0.0
27/11/2022,08:38:09,0.007,0.0,0.001,0.0
27/11/2022,08:39:09,0.007,0.0,0.001,0.0
27/11/2022,08:40:08,0.007,0.0,0.001,0.0
27/11/2022,08:41:09,0.006,0.0,0.001,0.0
27/11/2022,08:42:09,0.007,0.0,0.001,0.0
27/11/2022,08:43:09,0.008,0.0,0.002,0.001
27/11/2022,08:44:09,0.007,0.0,0.002,0.0
27/11/2022,08:45:08,0.008,0.0,0.002,0.0
27/11/2022,08:46:08,0.008,0.0,0.002,0.0
27/11/2022,08:47:09,0.009,0.0,0.002,0.0
27/11/2022,08:48:08,0.009,0.0,0.002,0.0
27/11/2022,08:49:09,0.010,0.0,0.002,0.0
27/11/2022,08:50:08,0.010,0.0,0.002,0.0
27/11/2022,08:51:08,0.011,0.0,0.003,0.001
27/11/2022,08:52:09,0.011,0.0,0.003,0.0
27/11/2022,08:53:08,0.011,0.0,0.003,0.0
27/11/2022,08:54:09,0.014,0.0,0.003,0.0
27/11/2022,08:55:09,0.014,0.0,0.003,0.0
27/11/2022,08:56:08,0.015,0.0,0.004,0.001
27/11/2022,08:57:09,0.017,0.0,0.004,0.0
27/11/2022,08:58:08,0.016,0.0,0.004,0.0
27/11/2022,08:59:09,0.018,0.0,0.005,0.001
27/11/2022,09:00:08,0.019,0.0,0.005,0.0
27/11/2022,09:01:09,0.020,0.0,0.005,0.0
27/11/2022,09:02:09,0.022,0.0,0.006,0.001
27/11/2022,09:03:09,0.023,0.0,0.006,0.0
27/11/2022,09:04:09,0.025,0.0,0.006,0.0
27/11/2022,09:05:08,0.025,0.0,0.007,0.001
27/11/2022,09:06:09,0.026,0.0,0.007,0.0
27/11/2022,09:07:09,0.025,0.0,0.008,0.001
27/11/2022,09:08:09,0.026,0.0,0.008,0.0
27/11/2022,09:09:09,0.027,0.0,0.008,0.0
27/11/2022,09:10:08,0.027,0.0,0.009,0.001
27/11/2022,09:11:09,0.028,0.0,0.009,0.0
27/11/2022,09:12:09,0.027,0.0,0.01,0.001
27/11/2022,09:13:08,0.029,0.0,0.01,0.0
27/11/2022,09:14:09,0.031,0.0,0.011,0.001
27/11/2022,09:15:09,0.033,0.0,0.011,0.0
27/11/2022,09:16:09,0.034,0.0,0.012,0.001
27/11/2022,09:17:08,0.035,0.0,0.012,0.0
27/11/2022,09:18:09,0.036,0.0,0.013,0.001
27/11/2022,09:19:08,0.037,0.0,0.014,0.001
27/11/2022,09:20:08,0.037,0.0,0.014,0.0
27/11/2022,09:21:08,0.037,0.0,0.015,0.001
27/11/2022,09:22:09,0.039,0.0,0.016,0.001
27/11/2022,09:23:08,0.041,0.0,0.016,0.0
27/11/2022,09:24:09,0.042,0.0,0.017,0.001
27/11/2022,09:25:09,0.043,0.0,0.018,0.001
27/11/2022,09:26:09,0.043,0.0,0.018,0.0
27/11/2022,09:27:09,0.043,0.0,0.019,0.001
27/11/2022,09:28:09,0.043,0.0,0.02,0.001
27/11/2022,09:29:09,0.043,0.0,0.02,0.0
27/11/2022,09:30:08,0.044,0.0,0.021,0.001
27/11/2022,09:31:09,0.044,0.0,0.022,0.001
27/11/2022,09:32:09,0.045,0.0,0.023,0.001
27/11/2022,09:33:09,0.046,0.0,0.023,0.0
27/11/2022,09:34:09,0.047,0.0,0.024,0.001
27/11/2022,09:35:09,0.049,0.0,0.025,0.001
27/11/2022,09:36:09,0.050,0.0,0.026,0.001
27/11/2022,09:37:09,0.050,0.0,0.027,0.001
27/11/2022,09:38:09,0.052,0.0,0.028,0.001
27/11/2022,09:39:09,0.054,0.0,0.028,0.0
27/11/2022,09:40:08,0.055,0.0,0.029,0.001
27/11/2022,09:41:09,0.056,0.0,0.03,0.001
27/11/2022,09:42:09,0.058,0.0,0.031,0.001
27/11/2022,09:43:09,0.059,0.0,0.032,0.001
27/11/2022,09:44:09,0.058,0.0,0.033,0.001
27/11/2022,09:45:09,0.060,0.0,0.034,0.001
27/11/2022,09:46:09,0.060,0.0,0.035,0.001
27/11/2022,09:47:09,0.061,0.0,0.036,0.001
27/11/2022,09:48:08,0.062,0.0,0.037,0.001
27/11/2022,09:49:09,0.064,0.0,0.038,0.001
27/11/2022,09:50:09,0.066,0.0,0.039,0.001
27/11/2022,09:51:09,0.068,0.0,0.04,0.001
27/11/2022,09:52:09,0.069,0.0,0.041,0.001
27/11/2022,09:53:09,0.069,0.0,0.043,0.002
27/11/2022,09:54:09,0.069,0.0,0.044,0.001
27/11/2022,09:55:09,0.069,0.0,0.045,0.001
27/11/2022,09:56:09,0.067,0.0,0.046,0.001
27/11/2022,09:57:09,0.066,0.0,0.047,0.001
27/11/2022,09:58:09,0.065,0.0,0.048,0.001
27/11/2022,09:59:09,0.062,0.0,0.049,0.001
27/11/2022,10:00:08,0.059,0.0,0.05,0.001
27/11/2022,10:01:09,0.056,0.0,0.051,0.001
27/11/2022,10:02:08,0.054,0.0,0.052,0.001
27/11/2022,10:03:09,0.054,0.0,0.053,0.001
27/11/2022,10:04:10,0.053,0.0,0.054,0.001
27/11/2022,10:05:09,0.052,0.0,0.055,0.001
27/11/2022,10:06:09,0.049,0.0,0.056,0.001
27/11/2022,10:07:09,0.051,0.0,0.057,0.001
27/11/2022,10:08:09,0.051,0.0,0.057,0.0
27/11/2022,10:09:09,0.050,0.0,0.058,0.001
27/11/2022,10:10:09,0.050,0.0,0.059,0.001
27/11/2022,10:11:08,0.051,0.0,0.06,0.001
27/11/2022,10:12:09,0.051,0.0,0.061,0.001
27/11/2022,10:13:09,0.052,0.0,0.062,0.001